MIDDLE PEAK CA US current weather conditions

sailwx.info

Wind from 140 at 12 knots gusting 24

Air temperature 6.7° C
Dewpoint 6.7° C

Last reported at 2020-Apr-05 14:36 UTC.
Time now 2020-Apr-05 15:53 UTC

Location: N 37°56' W 122°35'.
View on Google Maps.

See reports from other nearby stations

  
Tides and Currents Weather Stations Pressure Air Temp Water Temp Dewpoint Dewpoint Depression Visibility Wind Speed Wind Dir Waves Ship Positions
date/time (UTC)wind fromknots sea level pressurealtimeterstation pressurevisibilityair tempwater tempwave heightnotes
2020-Apr-05 14:36 140 12 gusting 24 6.7
2020-Apr-05 13:36 156 13 gusting 24 6.1
2020-Apr-05 12:36 149 13 gusting 32 5.6
2020-Apr-05 11:36 144 13 gusting 28 6.7
2020-Apr-05 10:36 155 15 gusting 32 6.1
2020-Apr-05 09:36 154 14 gusting 26 6.1
2020-Apr-05 08:36 158 13 gusting 24 6.1
2020-Apr-05 07:36 159 12 gusting 22 6.1
2020-Apr-05 06:36 164 10 gusting 19 6.1
2020-Apr-05 05:36 163 7 gusting 16 6.1
2020-Apr-05 04:36 184 6 gusting 16 6.1
2020-Apr-05 03:36 221 7 gusting 19 6.1
2020-Apr-05 02:36 246 9 gusting 19 6.1
2020-Apr-05 01:36 252 9 gusting 18 6.1
2020-Apr-05 00:36 255 10 gusting 26 6.7
2020-Apr-04 23:36 246 10 gusting 23 7.2
2020-Apr-04 22:36 181 11 gusting 25 7.8
2020-Apr-04 21:36 167 13 gusting 26 7.8
2020-Apr-04 20:36 160 13 gusting 26 7.8
2020-Apr-04 19:36 162 15 gusting 26 6.7
2020-Apr-04 18:36 160 14 gusting 22 6.7
2020-Apr-04 17:36 162 13 gusting 18 6.7
2020-Apr-04 16:36 166 10 gusting 15 6.1
2020-Apr-04 15:36 244 7 gusting 22 6.1
2020-Apr-04 14:36 288 14 gusting 22 5.6
2020-Apr-04 13:36 299 15 gusting 24 5.0
2020-Apr-04 12:36 311 17 gusting 26 4.4
2020-Apr-04 11:36 313 18 gusting 30 5.0
2020-Apr-04 10:36 312 19 gusting 27 4.4
2020-Apr-04 09:36 311 15 gusting 26 5.0
2020-Apr-04 08:36 309 15 gusting 26 5.6
2020-Apr-04 07:36 314 17 gusting 24 5.6
2020-Apr-04 06:36 310 11 gusting 16 5.0
2020-Apr-04 05:36 296 8 gusting 17 5.6
2020-Apr-04 04:36 298 12 gusting 18 5.0
2020-Apr-04 03:36 304 12 gusting 21 3.9
2020-Apr-04 02:36 299 11 gusting 17 4.4
2020-Apr-04 01:36 307 11 gusting 18 6.7
2020-Apr-04 00:36 316 11 gusting 17 8.3
2020-Apr-03 23:36 321 10 gusting 15 10.6
2020-Apr-03 22:36 323 9 gusting 16 11.1
2020-Apr-03 21:36 337 8 gusting 14 12.2
2020-Apr-03 20:36 330 6 gusting 12 12.8
2020-Apr-03 19:36 349 5 gusting 9 12.8
2020-Apr-03 18:36 008 2 gusting 9 11.7
2020-Apr-03 17:36 328 2 gusting 6 9.4
2020-Apr-03 16:36 334 5 gusting 10 7.8
2020-Apr-03 15:36 321 8 gusting 14 5.6